Norman Wells Airport
CYVQ : now visible

Airfield :











YOU CAN JOIN US ON...

 
LOGIN :

Register | Disclaimer

   EN    FR    IT 

 









Legend :    VFR   Marginal VFR   IFR   Intensive IFR   Very Intensive IFR
Visi :
Ceiling :
>= 8 km
>= 3000ft
5 to 8 km
1000 to 3000 ft
1500m to 5 km
500 to 1000 ft
800 to 1500m
200 to 500 ft
< 800m
< 200 ft
Symbols :   Thunderstorms  Fog  Heavy snow  Heavy precipitations  Wind > 20 kt






- Airport Elevation : 238 ft
- IATA code : YVQ


CYVQ - Norman Wells

CURRENT METAR :
  • 280600Z 28010KT 30SM SCT040 BKN120 OVC160 M27/M31 A2997 RMK SC3AC3AC2 SLP163

EXPIRED METARs :
  • 280500Z 27010KT 30SM FEW041 SCT140 BKN170 M28/M31 A2997 RMK SC2AC2AC3 SLP162
  • 280400Z 28010KT 30SM FEW040 BKN150 M28/M32 A2997 RMK SC2AC3 SLP163

TAF TAF CYVQ
Valid from the 28 at 06:00 until the 28 at 18:00 UTC


280538Z 2806/2818 28008KT P6SM SCT040 BKN140
TEMPO 2806/2818 P6SM -SN SCT020 BKN040 RMK NXT FCST BY 281200Z



MET'MAP, your aeronautical weather chart ! - Copyright ORBIFLY December 2007 - Disclaimer

ORBIFLY MET'MAP TEAM :

Programming & Development : Alexandra Zaïnal
Concept & original design : Baudouin d'Aumeries
Assistance for programming : Marc-Olivier Méhu
Technical & hardware support : Manuel Goepfert

Contact : metmap@orbifly.com




SOURCES & CREDITS :

   NOAA       Earth
Advisory